www.pogodaiklimat.ru

Погода и климат >> Архив погоды >> Узбекистан >> Ташкент


АРХИВ ПОГОДЫ в Ташкенте

Время (UTC), дата Ветер
(напр.,м/с)
 
Видим.   Явления Облачность Т
(С)
Тd
(С)
f
(%)
Тe
(С)
Тes
(С)
Комфортность P
(гПа)
Po
(гПа)
Тmin
(С)
Tmax
(С)
R
(мм)
R24
(мм)
S
(см)
12 20.06 З 1 10 км 3/0
[Ac lent Ci fib]
+36.4 +7.0 16 +34 +40 очень
жарко
999.1 947.1
15 20.06 С 1 10 км 3/0
[Ac lent Ci fib]
+31.4 +7.8 23 +30 +30 жарко 1000.1 947.2 +36.8
18 20.06 С 2 10 км ясно +27.6 +6.7 27 +27 +27 жарко 1001.1 947.5 +36.8
21 20.06 В 1 10 км ясно +22.0 +9.4 45 +24 +24 комфорт 1001.3 946.8
00 21.06 С 1 50 км ясно +21.2 +10.6 51 +23 +23 комфорт 1001.6 946.9
03 21.06 ЮВ 1 50 км ясно +30.0 +12.8 35 +31 +39 жарко 999.9 946.9
06 21.06 В 1 50 км 1/1 1000 м
[Cu hum]
+34.7 +7.4 19 +33 +52 опасность
солнечного
удара
999.1 946.8 +20.8
09 21.06 З 2 50 км 1/1 1000 м
[Cu hum]
+37.0 +8.0 17 +35 +51 опасность
солнечного
удара
997.7 945.9
12 21.06 З 1 50 км 1/1 1000 м
[Cu hum]
+37.0 +8.2 17 +35 +41 очень
жарко
996.7 945.0
15 21.06 З 1 50 км ясно +31.2 +13.9 35 +33 +33 жарко 997.9 945.2 +37.5
18 21.06 С 1 10 км ясно +26.7 +9.3 33 +27 +27 жарко 1000.0 946.4 +37.5
21 21.06 СВ 1 10 км ясно +22.3 +11.0 49 +24 +24 комфорт 1000.4 945.9
00 22.06 Ю 1 50 км ясно +22.0 +10.3 47 +24 +24 комфорт 1000.6 946.1
03 22.06 В 1 10 км ясно +30.0 +11.7 32 +31 +38 жарко 999.8 946.8
06 22.06 Ю 2 10 км ясно +34.6 +10.4 23 +34 +52 опасность
солнечного
удара
999.5 947.2 +21.3
09 22.06 З 1 10 км ясно +37.8 +10.2 19 +37 +57 опасность
солнечного
удара
998.2 946.5
12 22.06 З 2 10 км 4/3 1000 м
[Cu hum Ci fib]
+37.3 +9.4 18 +36 +40 очень
жарко
998.0 946.2
15 22.06 ЮВ 1 10 км 1/1 1000 м
[Cu hum]
+31.1 +13.3 34 +32 +32 жарко 998.9 946.2 +38.1
18 22.06 В 1 10 км ясно +27.0 +15.1 48 +30 +30 душно 1000.3 946.8 +38.1
21 22.06 СЗ 1 10 км 8/3 1000 м
[Cu hum Ci fib]
+25.1 +13.9 50 +27 +27 жарко 1000.9 947.0
00 23.06 С 1 50 км 4/1 1000 м
[Cu hum Ac trans]
+22.6 +13.0 55 +26 +26 жарко 1001.7 947.4
03 23.06 СЗ 1 10 км 8/4 1000 м
[Cu hum Ac trans]
+29.2 +12.3 35 +30 +33 жарко 1001.8 948.6
06 23.06 З 2 10 км 8/0 1000 м
[Ac lent Ci fib]
+33.4 +10.7 25 +33 +44 жарко 1001.3 948.8 +22.5
09 23.06 С 2 10 км слабый ливневой дождь 9/8 1000 м
[Cb calv Ac lent]
+31.9 +12.6 31 +33 +35 жарко 1002.6 949.7
12 23.06 СЗ 1 10 км {ливн. осадки} 4/0
[Ac lent Ci fib]
+34.3 +10.2 23 +33 +38 жарко 1001.3 948.8
15 23.06 З 1 10 км 8/3 1000 м
[Sc Ac lent]
+30.6 +10.3 28 +30 +30 жарко 1002.1 949.0 +34.4
18 23.06 ЮЗ 1 10 км 10/8 600 м
[Sc Ac lent]
+27.8 +10.5 34 +28 +28 жарко 1003.5 949.9 +34.4 0.0
21 23.06 Ю 1 10 км 6/0
[Ac lent]
+25.7 +13.4 47 +28 +28 жарко 1004.5 950.5
00 24.06 С 1 10 км 8/3 1000 м
[Sc Ac lent]
+22.2 +13.4 57 +25 +25 комфорт 1005.5 950.9
03 24.06 СВ 2 10 км 3/0
[Ac lent]
+27.7 +12.5 39 +29 +34 жарко 1005.6 951.9
06 24.06 СЗ 1 10 км 3/1 1000 м
[Cu hum Ac lent]
+31.7 +10.3 27 +31 +47 жарко 1005.3 952.2 +21.8
09 24.06 СЗ 2 50 км 6/6 600 м
[Cu hum]
+33.4 +10.7 25 +33 +40 жарко 1004.9 952.2
12 24.06 СЗ 1 50 км 4/4 600 м
[Cu hum]
+33.4 +9.2 23 +32 +36 жарко 1004.1 951.4
15 24.06 З 1 10 км 3/1 600 м
[Cu hum Ac lent]
+29.5 +8.0 26 +29 +29 жарко 1004.9 951.5 +34.1
18 24.06 З 1 10 км ясно +26.1 +10.4 37 +27 +27 жарко 1006.5 952.4 +34.1
21 24.06 В 1 10 км ясно +22.4 +12.4 53 +25 +25 комфорт 1006.8 952.1
00 25.06 В 1 10 км 8/4 300 м
[Cb calv Ac lent]
+20.4 +11.5 57 +23 +23 комфорт 1008.2 953.1
03 25.06 В 2 10 км 3/1 600 м
[Cu hum Ac lent]
+27.2 +11.5 38 +28 +33 жарко 1007.5 953.6
06 25.06 С 1 50 км 1/1 1000 м
[Cu hum]
+32.2 +12.6 30 +33 +52 опасность
солнечного
удара
1006.0 953.1 +19.8
09 25.06 СВ 1 50 км 4/4 1000 м
[Cu hum]
+32.5 +10.0 25 +32 +44 жарко 1005.5 952.6
12 25.06 СВ 2 50 км 3/3 1000 м
[Cu hum]
+34.0 +9.7 23 +33 +37 жарко 1004.4 951.8
15 25.06 В 1 50 км ясно +30.4 +11.5 31 +31 +31 жарко 1005.0 951.8 +34.6
18 25.06 СВ 1 10 км ясно +26.3 +11.7 40 +28 +28 жарко 1005.8 951.8 +34.6
21 25.06 СВ 2 10 км ясно +21.2 +11.5 54 +23 +23 комфорт 1006.5 951.6
00 26.06 СВ 1 50 км ясно +20.8 +11.9 57 +24 +24 комфорт 1005.7 950.8
03 26.06 В 1 50 км 3/3 1000 м
[Sc]
+28.2 +12.5 38 +30 +35 жарко 1005.4 951.8
06 26.06 Ю 1 10 км 1/0
[Ci fib]
+33.6 +11.3 26 +33 +54 опасность
солнечного
удара
1004.5 951.8 +20.0
09 26.06 З 2 10 км 9/8 1000 м
[Cu Sc Ci sp]
+33.6 +11.3 26 +33 +37 жарко 1004.0 951.3
12 26.06 Ю 3 10 км 8/5 1000 м
[Cu hum Cc]
+34.6 +7.6 19 +33 +35 жарко 1003.6 951.1
15 26.06 З 5 10 км 9/8 1000 м
[Cb cap Ac und]
+27.9 +10.2 33 +28 +28 жарко 1007.1 953.4 +34.9
18 26.06 З 3 10 км {ливн. осадки} 8/5 1000 м
[Cu Sc Ac As]
+24.9 +12.2 45 +27 +27 жарко 1008.6 954.3 +34.9
21 26.06 СЗ 3 10 км слабый ливневой дождь 9/9 1000 м
[Cb cap]
+25.2 +12.4 45 +27 +27 жарко 1009.4 955.1
00 27.06 В 2 50 км в посл. час ливневой дождь 9/8 1000 м
[Cb cap Ac und]
+21.4 +14.6 65 +24 +24 комфорт 1009.7 954.7
03 27.06 В 1 50 км 8/4 1000 м
[Cu Sc Ac cast]
+24.7 +15.2 55 +28 +30 душно 1010.4 955.9
06 27.06 Ю 1 50 км 3/3 1000 м
[Cu med, cong Ci fib]
+30.0 +11.1 31 +30 +45 жарко 1009.9 956.3 +20.4 0.6
09 27.06 СЗ 1 50 км 4/4 1000 м
[Cu med, cong]
+32.2 +10.0 26 +32 +44 жарко 1008.8 955.6

 

Местоположение метеостанции Ташкент (Ташкентская область, Узбекистан): широта 41.27 долгота 69.27 высота над уровнем моря 466 м.

В архиве по умолчанию представлена погода в Ташкенте за последнюю неделю. Архивные данные за месяц целиком и за предыдущие месяцы, начиная с января 2011 года, Вы можете получить, выбрав интересующий диапазон дат из раскрывающегося списка и нажав кнопку "Ввод!".

Внимание! Время в таблицах - всемирное. Для получения местного времени необходимо прибавить поправку, которая в Ташкенте равна 5 ч.

Смотрите также архив погоды в соседних городах и на ближайших метеорологических станциях:

Погода в Каунчи (Ташкентская область, Узбекистан) (31 км)
Погода в Туябугузе (Ташкентская область, Узбекистан) (37 км)
Погода в Келесе (Южно-Казахстанская область, Казахстан) (38 км)
Погода в Красноярской (Южно-Казахстанская область, Казахстан) (54 км)
Погода в Казыгурте (Южно-Казахстанская область, Казахстан) (55 км)
Погода в Дуканте (Ташкентская область, Узбекистан) (68 км)
Погода в Чимгане (Ташкентская область, Узбекистан) (70 км)
Погода в Сырдарье (Сырдарьинская область, Узбекистан) (70 км)
Погода в Ангрене (Ташкентская область, Узбекистан) (82 км)
Погода в Жетысае (Южно-Казахстанская область, Казахстан) (96 км)

Пояснения к столбцам:

Ветер - указаны скорость ветра в м/с - средняя за 10 мин, порывы в срок и между сроками (в фигурных скобках) и направление, откуда дует ветер: С - северный, СВ - северо-восточный, В - восточный, ЮВ - юго-восточный, Ю - южный, ЮЗ - юго-западный, З - западный, СЗ - северо-западный.
Видимость - горизонтальная дальность видимости в метрах или километрах. При видимости от 1 до 10 км при отсутствии осадков обычно наблюдается дымка, при ухудшении видимости до 1 км и менее - туман. В сухую погоду видимость может ухудшаться дымом, пылью или мглою.
Явления - указаны атмосферные явления, наблюдавшиеся в срок или в последний час перед сроком; фигурными скобками обозначены явления, наблюдавшиеся между сроками (за 1-3 часа до срока); квадратными скобками обозначены град или гололедные отложения с указанием их диаметра в мм.
Облачность - указаны через наклонную черту общая и нижняя облачность в баллах и высота нижней границы облаков в метрах; квадратными скобками обозначены формы облаков: Ci - перистые, Cs - перисто-слоистые, Cc - перисто-кучевые, Ac - высококучевые, As - высокослоистые, Sc - слоисто-кучевые, Ns - слоисто-дождевые, Cu - кучевые, Cb - кучево-дождевые. Подробнее классификацию облаков см. в Атласе облаков (PDF).
T - Температура воздуха - температура, измеренная на высоте 2 м над землей.
Td - Температура точки росы - температура, при понижении до которой содержащийся в воздухе водяной пар достигнет насыщения.
f - Относительная влажность воздуха - влажноcть воздуха, измеренная на высоте 2 м над землей.
Te - Эффективная температура - температура, которую ощущает одетый по сезону человек в тени. Характеристика душности погоды. При расчете учитывается влияние влажности воздуха и скорости ветра на теплоощущения человека.
Tes - Эффективная температура на солнце - температура, которую ощущает человек, с поправкой на солнечный нагрев. Характеристика знойности погоды. Зависит от высоты солнца над горизонтом, облачности и скорости ветра. Ночью, в пасмурную погоду, а также при ветре 12 м/с и более поправка равна нулю.
P - Атмосферное давление - приведенное к уровню моря атмосферное давление.
Po - Атмосферное давление - измеренное на уровне метеостанции атмосферное давление.
Tmin - Минимальная температура - минимум температуры воздуха на высоте 2 м над землей.
Tmax - Максимальная температура - максимум температуры воздуха на высоте 2 м над землей.
R - Количество осадков - Количество выпавших осадков за период времени, мм. При наведении курсора мыши на число - период времени, за который выпало указанное количество осадков.
R24 - Количество осадков - Количество выпавших осадков за 24 часа, мм.
S - Снежный покров - Высота снежного покрова, см. При наведении курсора мыши на число - состояние снежного покрова и степень покрытия местности в баллах.